TimePDT,TemperatureF,Dew PointF,Humidity,Sea Level PressureIn,VisibilityMPH,Wind Direction,Wind SpeedMPH,Gust SpeedMPH,PrecipitationIn,Events,Conditions,WindDirDegrees,DateUTC
12:52 AM,41.0,30.9,67,30.29,-9999.0,Calm,Calm,-,N/A,,Unknown,0,2012-10-14 07:52:00
1:52 AM,42.1,33.1,70,30.28,-9999.0,SSE,8.1,-,N/A,,Unknown,150,2012-10-14 08:52:00
2:52 AM,45.0,35.1,68,30.25,-9999.0,South,5.8,-,N/A,,Unknown,170,2012-10-14 09:52:00
3:52 AM,39.9,30.9,70,30.27,-9999.0,SSW,4.6,-,N/A,,Unknown,210,2012-10-14 10:52:00
4:52 AM,39.0,30.9,73,30.27,-9999.0,South,8.1,-,N/A,,Unknown,170,2012-10-14 11:52:00
5:52 AM,39.0,32.0,76,30.26,-9999.0,SE,6.9,-,N/A,,Unknown,140,2012-10-14 12:52:00
6:52 AM,39.0,32.0,76,30.29,-9999.0,NW,4.6,-,N/A,,Unknown,310,2012-10-14 13:52:00
7:52 AM,39.0,30.0,70,30.29,-9999.0,Calm,Calm,-,N/A,,Unknown,0,2012-10-14 14:52:00
8:52 AM,50.0,34.0,54,30.27,-9999.0,Calm,Calm,-,N/A,,Unknown,0,2012-10-14 15:52:00
9:52 AM,57.0,35.1,44,30.25,-9999.0,NW,4.6,-,N/A,,Unknown,310,2012-10-14 16:52:00
10:52 AM,64.0,37.0,37,30.21,-9999.0,Calm,Calm,-,N/A,,Unknown,0,2012-10-14 17:52:00
11:52 AM,70.0,36.0,29,30.18,-9999.0,WSW,6.9,-,N/A,,Unknown,240,2012-10-14 18:52:00
12:52 PM,75.0,35.1,23,30.14,-9999.0,South,11.5,18.4,N/A,,Unknown,190,2012-10-14 19:52:00
1:52 PM,75.9,32.0,20,30.11,-9999.0,SW,15.0,21.9,N/A,,Unknown,220,2012-10-14 20:52:00
2:52 PM,77.0,30.9,19,30.08,-9999.0,SW,16.1,20.7,N/A,,Unknown,220,2012-10-14 21:52:00
3:52 PM,73.0,30.0,20,30.09,-9999.0,SSW,10.4,-,N/A,,Unknown,210,2012-10-14 22:52:00
4:52 PM,73.0,28.0,19,30.07,-9999.0,South,9.2,-,N/A,,Unknown,190,2012-10-14 23:52:00
5:52 PM,70.0,30.0,23,30.05,-9999.0,SE,9.2,-,N/A,,Unknown,130,2012-10-15 00:52:00
6:52 PM,68.0,28.9,23,30.04,-9999.0,SSE,10.4,-,N/A,,Unknown,160,2012-10-15 01:52:00
7:52 PM,66.9,30.0,25,30.05,-9999.0,South,10.4,-,N/A,,Unknown,180,2012-10-15 02:52:00
8:52 PM,66.0,28.9,25,30.03,-9999.0,South,13.8,-,N/A,,Unknown,170,2012-10-15 03:52:00
9:52 PM,61.0,28.9,30,30.02,-9999.0,South,10.4,-,N/A,,Unknown,170,2012-10-15 04:52:00
10:52 PM,61.0,30.0,31,29.99,-9999.0,South,9.2,-,N/A,,Unknown,180,2012-10-15 05:52:00
11:52 PM,57.9,28.9,33,29.98,-9999.0,Calm,Calm,-,N/A,,Unknown,0,2012-10-15 06:52:00